Location: Narvik
(68.4360°N, 17.4370°E)
Time: 13:34:07
(UTC+01:00)

Envisat - Visible Passes

Search period start: 25 March 2019 00:00
Search period end: 04 April 2019 01:00
Orbit: 764 x 766 km, 98.2° (Epoch: 24 March)

Date Brightness Start Highest point End Pass type
(mag) Time Alt. Az. Time Alt. Az. Time Alt. Az.
25 Mar 5.6 19:35:27 10° SW 19:39:36 24° W 19:43:46 10° NNW visible
26 Mar 6.2 20:40:48 10° W 20:42:59 13° WNW 20:45:10 10° NW visible
27 Mar 5.9 20:01:58 10° WSW 20:05:32 19° WNW 20:09:06 10° NW visible
29 Mar 6.0 20:28:51 10° WSW 20:31:33 14° WNW 20:34:15 10° NW visible
30 Mar 5.8 19:50:18 10° SW 19:54:08 21° W 19:57:58 10° NNW visible
31 Mar 6.5 21:56:37 10° WNW 21:57:38 11° WNW 21:58:39 10° NW visible
01 Apr 6.0 21:17:01 10° WSW 21:20:07 16° WNW 21:23:13 10° NW visible
03 Apr 6.2 21:44:15 10° W 21:46:10 12° WNW 21:48:07 10° NW visible
